Wind_Speed
13 13 13 14 14 14 14 13 12 12 12 12 12 11 11 11 10 10 9 8 8 7 6 5 4 3 3 2 2 2 3 3 4 5 5 5 4 4 4 3 3 3 3
14 15 15 16 16 16 16 15 14 13 13 13 13 12 12 12 11 11 10 9 8 8 7 5 4 4 3 2 2 2 3 3 4 4 5 5 4 4 4 3 3 4 3
15 16 17 17 18 18 17 17 15 15 14 14 14 14 14 13 12 12 11 10 9 8 7 6 5 5 4 3 3 3 3 3 4 4 4 4 4 5 4 4 4 4 4
15 17 18 19 20 20 19 19 18 16 15 15 15 15 15 14 13 13 12 11 10 9 8 7 6 6 5 4 3 3 3 3 3 4 4 4 5 5 4 5 5 5 4
16 18 19 19 20 21 21 20 19 19 17 16 16 16 16 15 14 13 13 12 10 9 8 8 7 6 5 4 3 3 3 3 3 3 4 4 5 5 5 5 5 5 5
17 18 20 20 20 20 21 21 20 20 19 18 17 17 16 16 15 14 14 12 11 10 9 8 8 7 6 5 5 4 4 3 2 3 3 4 5 5 5 5 5 5 5
18 18 19 20 21 20 21 21 20 20 20 19 19 18 18 17 16 15 15 13 12 11 10 9 9 8 7 7 6 5 4 3 3 3 3 4 4 5 5 5 6 5 5
17 18 18 19 20 19 20 21 20 20 20 20 19 19 19 18 17 16 16 14 13 12 11 11 10 9 8 8 7 6 5 4 3 3 4 5 5 6 6 6 6 6 6
18 17 18 18 19 20 21 22 21 21 21 21 20 20 19 19 19 18 17 16 14 13 13 12 11 10 10 9 8 8 7 6 5 4 4 6 6 7 7 7 7 7 7
20 19 20 19 19 20 22 23 23 22 22 22 21 21 20 20 19 19 18 17 16 15 14 13 12 11 11 10 10 9 8 8 7 7 6 7 8 8 8 8 8 8 8
21 20 20 20 21 21 23 24 24 24 22 22 22 21 21 21 20 20 19 18 17 16 16 15 14 13 12 12 11 11 10 9 9 8 8 9 9 9 10 10 10 10 10
22 21 21 21 22 23 24 24 25 25 23 23 23 23 22 22 22 21 20 20 19 18 17 16 15 14 14 13 13 12 12 11 11 9 10 11 11 11 11 12 12 12 12
25 23 21 22 23 25 24 24 25 25 25 24 25 24 24 23 22 22 22 21 20 19 18 18 17 16 16 15 14 14 14 13 12 11 11 12 13 13 13 13 13 14 13
27 25 24 23 24 24 25 25 25 25 25 25 25 26 25 24 23 23 23 22 21 21 20 19 19 18 17 17 16 15 15 15 15 13 13 14 15 15 15 15 15 15 15
28 28 26 25 25 25 25 25 26 26 26 26 26 26 26 25 25 24 23 23 23 22 21 20 20 20 19 18 17 17 17 17 17 16 16 16 16 17 17 17 17 16 16
30 29 27 27 26 27 27 26 27 28 28 27 27 26 27 26 25 25 25 24 23 23 22 22 22 21 21 20 20 19 19 19 19 19 19 18 19 19 19 19 19 18 19
31 31 29 29 28 27 27 28 29 29 29 29 28 28 27 27 26 26 26 25 24 23 23 23 23 22 22 22 21 21 21 21 21 21 21 20 21 21 21 21 21 21 21
31 30 30 29 28 28 28 29 29 30 29 29 28 28 27 27 26 26 27 26 25 24 24 24 23 23 23 23 23 23 23 23 24 23 23 23 24 24 23 23 23 24 24
33 31 31 31 30 30 30 29 29 30 30 30 30 29 29 28 28 27 27 26 26 26 25 25 24 24 24 25 25 25 25 25 26 26 26 27 27 27 26 26 26 27 27
34 34 34 32 31 31 31 30 29 29 29 30 31 30 29 29 30 29 27 26 27 27 26 26 26 25 26 26 26 26 26 27 27 28 29 30 30 29 29 29 29 29 29
35 35 35 33 32 31 31 30 29 27 28 30 30 29 28 28 29 29 28 29 28 28 28 28 27 27 27 28 28 28 28 29 29 30 30 31 31 31 31 31 31 31 31
34 35 35 34 33 32 31 30 27 28 28 26 26 27 27 27 28 28 28 28 29 30 29 29 30 30 30 31 31 31 30 31 31 31 32 32 32 32 33 33 34 34 35
34 34 35 34 34 33 32 31 28 25 23 23 23 24 24 26 26 28 29 29 29 30 31 31 32 32 32 32 32 33 33 33 32 32 33 34 34 34 34 34 35 36 36
33 34 34 34 34 32 31 29 28 25 24 23 23 22 24 25 24 25 26 28 28 30 31 32 32 32 32 33 34 35 35 34 34 34 34 35 35 36 36 36 37 37 37
33 34 34 34 34 31 30 29 28 27 24 23 21 21 22 23 24 23 24 26 29 31 32 32 32 33 33 34 34 35 35 35 36 37 36 36 37 38 39 40 40 40 41
32 33 33 35 35 31 30 30 29 28 25 23 22 21 22 23 23 23 24 25 28 31 32 33 34 34 35 36 35 35 36 36 37 38 38 38 39 39 40 41 41 43 43
Wind_Direction
256 253 247 240 234 228 223 220 219 218 218 222 226 227 227 224 222 223 223 223 222 222 226 229 231 236 245 260 286 311 326 335 333 336 341 342 338 334 325 322 322 323 320
256 255 248 242 236 232 229 226 224 225 226 229 232 234 235 234 233 233 233 231 229 228 228 229 233 238 241 252 276 300 317 325 329 333 337 338 335 329 323 315 313 313 310
262 259 250 244 240 237 234 231 229 230 231 235 238 240 240 240 241 242 240 236 234 233 233 233 232 233 233 243 265 288 306 318 326 331 334 337 334 329 322 311 306 305 304
267 263 254 247 243 240 236 234 233 234 235 238 242 243 243 245 247 248 244 242 241 240 239 235 229 228 231 239 253 273 293 308 323 329 332 329 328 324 317 310 304 303 305
267 264 256 251 246 242 239 238 236 237 237 240 245 247 247 248 250 251 249 248 246 246 242 237 231 226 229 235 245 258 275 293 312 322 324 325 328 327 319 312 305 304 306
263 263 257 250 245 244 241 240 239 240 240 242 246 250 252 253 253 252 252 251 250 248 243 239 234 229 230 233 240 249 262 274 291 312 319 322 325 328 321 315 307 305 305
262 261 261 251 245 243 239 238 241 242 244 245 247 250 253 255 255 254 254 253 251 250 245 240 236 233 232 234 238 245 252 259 278 302 316 318 321 324 321 317 311 306 304
261 260 263 257 250 248 244 241 243 245 246 248 249 251 253 256 257 255 255 253 251 249 246 242 239 237 234 235 239 244 246 252 268 284 304 309 316 318 318 316 310 303 299
261 259 258 258 257 252 249 245 246 248 248 249 250 252 254 255 256 256 255 252 250 248 245 243 242 237 235 237 241 246 249 256 269 284 294 298 306 310 311 311 306 299 293
260 256 254 255 255 254 252 247 247 249 249 250 251 253 254 255 255 255 254 253 251 249 246 244 243 239 238 241 244 248 252 258 268 280 287 291 297 305 307 307 304 298 294
257 254 253 252 252 252 251 248 247 250 250 250 252 253 254 255 254 254 253 252 250 249 246 245 244 241 240 244 247 250 255 261 269 277 286 292 297 300 302 303 302 296 291
255 253 254 253 253 252 250 247 247 248 249 250 252 253 253 254 254 253 253 252 250 248 247 247 246 244 244 246 250 253 258 263 268 272 280 287 293 296 298 300 300 297 291
256 255 253 253 253 253 251 250 249 248 249 250 252 251 251 251 252 252 251 251 250 249 248 248 248 246 247 249 252 256 260 264 267 269 276 284 290 292 295 296 296 296 291
255 255 256 252 253 254 251 251 251 249 249 249 251 251 250 250 250 250 251 251 250 249 248 249 249 249 250 252 255 258 261 264 268 271 276 281 285 289 292 293 294 294 292
252 253 255 252 247 252 249 249 250 250 249 250 250 250 250 248 249 250 250 249 249 248 247 250 251 252 253 255 257 259 263 266 271 272 275 278 282 287 289 290 292 292 292
248 247 249 250 249 252 248 251 251 249 249 248 248 248 247 247 250 250 250 249 249 249 250 252 253 254 255 258 259 261 264 266 270 273 276 278 282 285 286 286 288 290 290
245 247 249 250 249 253 250 249 251 251 250 247 246 246 244 245 247 248 249 249 248 248 250 252 252 253 256 258 261 264 266 268 269 273 276 277 280 284 285 285 286 287 287
246 244 247 249 251 254 253 252 252 249 250 249 246 245 241 242 244 246 247 246 248 248 250 252 254 255 258 261 263 266 267 269 270 273 276 278 280 281 283 284 284 285 285
246 244 246 248 251 253 254 254 251 248 248 249 244 242 242 243 242 246 246 246 248 249 250 252 255 257 259 262 264 267 268 270 271 272 275 277 279 280 281 283 283 283 284
243 243 244 246 248 251 253 251 249 247 247 247 246 242 242 243 242 242 244 247 249 250 251 252 254 256 258 262 264 266 269 270 272 272 274 277 279 279 280 282 283 282 282
240 242 243 246 247 250 253 253 251 248 245 246 246 241 242 242 244 245 244 247 248 250 251 253 255 257 258 260 262 265 268 270 271 272 274 276 279 279 280 281 281 282 283
240 241 243 245 246 249 251 252 253 250 249 251 247 242 243 248 248 247 246 247 249 250 250 254 256 257 259 261 262 265 268 270 271 272 273 275 277 278 279 280 281 283 283
239 241 243 245 247 248 250 252 255 253 250 253 252 246 247 249 254 253 250 250 252 251 253 255 257 258 259 260 262 264 267 269 270 271 273 274 275 277 278 280 282 283 283
242 244 243 245 247 249 250 249 251 252 251 253 255 252 254 253 257 257 254 253 254 256 257 257 258 259 260 261 264 266 269 270 270 272 273 274 275 276 277 279 281 283 283
242 243 242 246 247 247 247 248 250 248 251 252 258 259 260 259 262 265 261 258 258 258 258 258 259 259 261 264 266 269 271 271 272 273 274 274 275 276 277 279 280 282 283
243 244 244 248 250 250 248 247 249 251 252 257 260 262 263 266 266 269 265 263 263 259 258 258 259 262 262 265 266 268 271 272 272 273 274 275 276 277 279 280 282 284 284
Height
5884 5884 5885 5886 5887 5888 5888 5889 5890 5890 5891 5892 5893 5894 5894 5894 5895 5895 5895 5896 5896 5896 5896 5896 5896 5897 5897 5897 5897 5898 5898 5898 5898 5898 5898 5898 5898 5898 5898 5898 5898 5898 5898
5882 5883 5884 5885 5886 5887 5887 5888 5889 5890 5890 5891 5892 5893 5893 5894 5894 5894 5894 5895 5895 5895 5895 5895 5896 5896 5896 5897 5897 5897 5897 5897 5897 5898 5897 5897 5897 5897 5897 5898 5898 5898 5898
5880 5881 5882 5883 5884 5885 5886 5887 5888 5888 5889 5890 5891 5892 5892 5893 5893 5893 5893 5894 5894 5894 5894 5894 5895 5895 5896 5896 5896 5896 5897 5897 5897 5897 5897 5897 5897 5897 5897 5897 5897 5897 5898
5878 5878 5880 5881 5882 5883 5884 5885 5886 5887 5888 5889 5890 5890 5891 5892 5892 5892 5892 5893 5893 5893 5893 5894 5894 5894 5895 5895 5896 5896 5896 5897 5897 5897 5897 5896 5897 5897 5897 5897 5897 5897 5897
5875 5876 5877 5878 5879 5881 5882 5883 5884 5885 5886 5887 5888 5889 5890 5890 5891 5891 5891 5891 5892 5892 5893 5893 5893 5894 5894 5895 5895 5895 5896 5896 5896 5896 5897 5897 5896 5896 5896 5896 5896 5896 5896
5873 5873 5874 5875 5876 5878 5879 5881 5882 5883 5884 5885 5886 5887 5888 5889 5889 5890 5890 5890 5891 5891 5892 5892 5893 5893 5894 5894 5895 5895 5895 5896 5896 5896 5896 5896 5896 5896 5896 5896 5896 5896 5896
5870 5871 5871 5872 5873 5874 5876 5878 5879 5881 5882 5883 5884 5885 5886 5887 5887 5888 5888 5889 5889 5890 5890 5891 5892 5892 5893 5894 5894 5894 5894 5895 5895 5896 5896 5896 5896 5895 5895 5895 5895 5895 5895
5867 5868 5868 5869 5870 5871 5873 5874 5876 5878 5879 5880 5881 5882 5883 5885 5885 5886 5887 5887 5888 5888 5889 5890 5891 5891 5892 5893 5893 5893 5894 5894 5895 5895 5896 5896 5895 5895 5895 5894 5894 5894 5894
5864 5865 5865 5866 5867 5868 5870 5871 5873 5874 5876 5877 5878 5880 5881 5882 5883 5884 5884 5885 5886 5886 5887 5888 5889 5890 5891 5892 5892 5893 5893 5893 5894 5894 5895 5894 5894 5894 5894 5893 5893 5893 5893
5860 5861 5861 5863 5864 5865 5866 5868 5869 5871 5872 5874 5875 5877 5878 5879 5880 5881 5882 5883 5884 5884 5885 5886 5887 5888 5889 5890 5891 5891 5892 5892 5892 5893 5893 5893 5893 5893 5893 5892 5892 5892 5892
5855 5855 5857 5859 5860 5861 5862 5864 5865 5867 5869 5870 5872 5873 5875 5876 5877 5878 5879 5880 5881 5882 5883 5884 5885 5886 5888 5888 5889 5890 5890 5891 5891 5892 5892 5892 5891 5891 5891 5891 5891 5891 5890
5851 5852 5853 5855 5856 5857 5858 5860 5861 5863 5864 5866 5868 5870 5871 5873 5874 5875 5876 5877 5878 5880 5881 5882 5883 5884 5885 5886 5887 5888 5889 5889 5890 5890 5890 5889 5890 5890 5890 5889 5889 5889 5888
5846 5847 5848 5849 5851 5853 5855 5856 5857 5859 5860 5862 5864 5866 5867 5869 5871 5872 5873 5874 5876 5877 5878 5880 5881 5882 5883 5884 5885 5886 5887 5887 5888 5888 5888 5888 5888 5888 5888 5887 5887 5886 5886
5841 5842 5843 5843 5846 5848 5850 5852 5853 5854 5856 5858 5859 5861 5863 5865 5867 5869 5870 5871 5873 5874 5875 5877 5878 5880 5881 5882 5882 5883 5884 5885 5885 5886 5886 5886 5886 5886 5885 5885 5884 5884 5883
5835 5837 5838 5837 5840 5842 5844 5846 5848 5849 5851 5853 5855 5856 5858 5861 5863 5865 5867 5868 5869 5870 5871 5874 5875 5877 5878 5879 5879 5880 5881 5882 5882 5882 5883 5883 5883 5882 5882 5881 5881 5881 5880
5827 5828 5829 5832 5833 5836 5839 5841 5842 5844 5846 5847 5850 5851 5854 5856 5859 5861 5863 5864 5865 5867 5868 5870 5872 5873 5874 5875 5876 5877 5877 5878 5878 5878 5879 5879 5879 5879 5878 5878 5878 5877 5877
5821 5822 5823 5824 5825 5829 5831 5834 5836 5838 5840 5842 5844 5846 5848 5851 5853 5855 5858 5860 5861 5863 5865 5866 5866 5868 5870 5871 5872 5873 5873 5874 5874 5875 5875 5875 5876 5875 5874 5874 5873 5873 5872
5815 5816 5819 5819 5821 5825 5826 5828 5830 5832 5834 5836 5838 5840 5842 5845 5847 5849 5853 5855 5856 5858 5860 5861 5862 5863 5866 5867 5868 5868 5869 5870 5870 5870 5870 5871 5871 5870 5870 5869 5869 5868 5868
5809 5811 5813 5815 5817 5819 5821 5822 5824 5826 5828 5831 5833 5834 5836 5839 5842 5844 5847 5849 5851 5853 5855 5857 5858 5860 5861 5862 5863 5864 5864 5865 5865 5865 5865 5865 5865 5865 5864 5864 5863 5862 5862
5804 5806 5807 5809 5811 5813 5814 5815 5818 5820 5822 5824 5826 5827 5830 5833 5835 5837 5841 5844 5846 5848 5849 5851 5853 5854 5856 5857 5858 5859 5859 5859 5860 5860 5860 5859 5859 5859 5858 5858 5857 5856 5856
5796 5799 5801 5803 5806 5808 5809 5810 5811 5813 5816 5818 5819 5819 5824 5828 5829 5830 5834 5838 5840 5842 5844 5846 5847 5849 5850 5851 5852 5853 5854 5854 5854 5854 5854 5853 5853 5852 5852 5851 5850 5850 5849
5790 5792 5795 5798 5801 5803 5804 5805 5805 5808 5811 5812 5813 5815 5818 5821 5823 5824 5827 5831 5834 5836 5838 5839 5841 5842 5844 5845 5846 5847 5847 5848 5848 5847 5848 5847 5846 5845 5845 5844 5843 5842 5841
5784 5786 5788 5792 5794 5796 5798 5799 5800 5803 5805 5807 5808 5810 5812 5815 5817 5819 5821 5825 5827 5829 5831 5833 5834 5835 5836 5838 5839 5840 5840 5841 5841 5841 5840 5840 5839 5838 5838 5837 5836 5834 5833
5777 5780 5783 5786 5789 5791 5792 5794 5796 5798 5799 5802 5804 5806 5808 5810 5812 5813 5815 5818 5820 5823 5825 5826 5827 5828 5830 5831 5832 5833 5833 5833 5833 5833 5833 5832 5832 5831 5830 5829 5828 5827 5825
5772 5775 5777 5780 5783 5785 5787 5789 5791 5793 5795 5797 5799 5802 5804 5806 5808 5809 5810 5812 5814 5816 5818 5820 5821 5822 5823 5824 5825 5826 5826 5826 5826 5826 5826 5825 5824 5823 5822 5821 5820 5818 5817
5767 5770 5772 5774 5777 5779 5782 5784 5785 5787 5789 5791 5794 5797 5799 5801 5803 5804 5805 5806 5808 5809 5811 5813 5814 5815 5816 5817 5817 5818 5818 5818 5818 5818 5817 5817 5816 5815 5814 5813 5811 5809 5807